Regional Weather Roundup
Issued by NWS

Home | Current Version | Previous Version | Graphics & Text | Print | Product List | Glossary Off
Versions: 1 2 3 4 5 6 7 8 9 10 11 12 13 14 15 16 17 18 19 20 21 22 23 24 25 26 27 28 29 30 31 32 33 34 35 36 37 38 39 40 41 42 43 44 45 46 47 48 49 50

000
ASUS43 KTOP 280808
RWRKS

WEATHER ROUNDUP FOR KANSAS
NATIONAL WEATHER SERVICE GOODLAND KS
200 AM CST FRI NOV 28 2014

NOTE:  "FAIR" INDICATES FEW OR NO CLOUDS BELOW 12,000 FEET WITH NO
SIGNIFICANT WEATHER AND/OR OBSTRUCTIONS TO VISIBILITY.

KSZ001>006-013>018-027>032-041>047-280900-
NORTHWEST KANSAS

CITY           SKY/WX    TMP DP  RH WIND       PRES   REMARKS
GOODLAND       CLEAR     36  24  62 W7        30.01F
HAYS           CLEAR     36  21  55 SW8       29.99F
HILL CITY      CLEAR     38  27  64 W8        29.96F
RUSSELL        CLEAR     34  24  67 S13       29.97F WCI  25
$$

KSZ061>065-074>080-084>089-280900-
SOUTHWEST KANSAS

CITY           SKY/WX    TMP DP  RH WIND       PRES   REMARKS
DODGE CITY     CLEAR     39  27  62 SW15      30.03F WCI  31
ELKHART          N/A     44  25  47 W10         N/A
GARDEN CITY    PTCLDY    32  26  78 S5        30.02F
GREAT BEND     CLEAR     36  21  55 S9        30.03S
LIBERAL        CLEAR     36  25  64 SW9       30.05F
PRATT          CLEAR     34  27  75 S13       30.05F WCI  25
$$

KSZ066>073-081>083-090>101-280900-
SOUTHEAST KANSAS

CITY           SKY/WX    TMP DP  RH WIND       PRES   REMARKS
CHANUTE        CLEAR     32  25  75 SE12      30.19F WCI  23
COFFEYVILLE    CLEAR     34  26  72 SE7       30.21F
HUTCHINSON     CLEAR     37  25  61 S9        30.07F
MEDICINE LODGE   N/A     35  26  69 S3        30.08F
NEWTON         CLEAR     39  21  48 S20G26    30.09F WCI  30
PARSONS        CLEAR     36  26  67 S5        30.22F
WICHITA INTL   PTCLDY    37  23  56 S14       30.10F WCI  28
WICHITA JABRA  CLEAR     39  23  52 S22G31    30.09F WCI  29
WICHITA MCCONL CLEAR     37  22  54 S16       30.11F WCI  28
WINFIELD       CLEAR     42  24  49 S14       30.14F
$$

KSZ007>012-019>026-033>040-048>060-102>105-280900-
NORTHEAST KANSAS

CITY           SKY/WX    TMP DP  RH WIND       PRES   REMARKS
CONCORDIA      CLEAR     32  22  66 S8        30.00F
EMPORIA        CLEAR     31  23  72 S16       30.11F WCI  20
LAWRENCE       CLEAR     29  22  75 SE8       30.16F
MANHATTAN      CLEAR     37  23  56 S8        30.06F
MARYSVILLE     CLEAR     32  23  69 S10       30.03F WCI  24
OLATHE IND     CLEAR     32  22  66 S12       30.17F WCI  23
OLATHE EXE     CLEAR     30  22  72 SE8       30.17F
SALINA         CLEAR     40  26  57 S13       30.03F WCI  32
TOPEKA BILLARD CLEAR     37  23  56 S10       30.13F WCI  30
TOPEKA FORBES  CLEAR     35  23  61 S16       30.10F WCI  25
$$


USA.gov is the U.S. government's official web portal to all federal, state and local government web resources and services.